Location: Ogbourne Saint George
(51.4500°N, 1.7167°W)
Time: 08:53:14
(UTC+00:00)

Daily predictions for brighter satellites

Satellite Brightness Start Highest point End
(mag) Time Altitude Azimuth Time Altitude Azimuth Time Altitude Azimuth
Nadezhda 4 Rocket 4.1 16:24:54 10° N 16:31:17 84° ENE 16:37:38 10° S
Cosmos 44 Rocket 3.6 16:29:26 10° NW 16:34:13 45° NE 16:38:51 10° ESE
Cosmos 1464 Rocket 4.1 16:27:52 10° S 16:34:16 89° E 16:40:41 10° N
COSMOS 2406 3.5 16:35:44 10° S 16:41:18 54° ESE 16:46:52 10° NE
Cosmos 468 Rocket 4.0 16:37:24 10° SSW 16:42:33 76° ESE 16:47:48 10° NNE
Meteor 1-31 Rocket 3.8 16:42:21 10° S 16:46:03 49° W 16:49:49 10° NNW
Cosmos 1092 Rocket 4.0 16:45:17 10° N 16:51:41 73° E 16:57:59 10° SSE
Cosmos 1898 Rocket 4.3 16:46:46 10° NNW 16:51:56 58° WSW 16:57:01 10° S
Meteor 2-21 4.4 16:49:12 10° N 16:55:14 62° ENE 17:01:13 10° SSE
CZ-4B R/B 4.0 16:50:51 10° ESE 16:55:18 27° ENE 16:59:43 10° N
USA 267 4.0 16:50:42 10° ENE 16:56:44 38° SE 17:02:44 10° SSW
CZ-2D R/B 4.2 16:54:04 10° ESE 16:57:18 27° ENE 17:00:32 10° N
ATLAS CENTAUR R/B 3.1 16:47:33 10° SW 16:57:39 65° SE 17:01:30 12° ENE
SL-16 R/B 4.4 16:54:00 10° N 16:58:52 25° NW 17:03:44 10° WSW
USA 306 2.9 16:55:12 10° WNW 16:59:27 68° NNE 17:03:40 10° E
Cosmos 1939 Rocket 2.9 16:55:52 10° SSE 16:59:52 57° ENE 17:03:51 10° N
Cosmos 1633 Rocket 3.7 16:56:21 10° N 17:00:22 34° ENE 17:04:23 10° SE
COSMO-SKYMED 1 4.3 16:59:10 12° ENE 17:00:44 14° E 17:02:55 10° ESE
Cosmos 1666 3.2 16:58:45 10° N 17:02:12 34° ENE 17:05:37 10° SE
Cosmos 1151 Rocket 3.9 16:58:37 10° SSE 17:02:20 28° E 17:06:06 10° NNE
Cosmos 2360 Rocket 3.3 16:59:08 10° NNW 17:03:41 24° NE 17:08:13 10° E
Cosmos 1782 3.0 17:00:27 10° S 17:04:18 49° E 17:08:10 10° NNE
ISS -1.3 17:01:56 10° W 17:04:47 24° SSW 17:07:35 10° SSE
SeaSat 1 3.4 17:03:42 10° NNE 17:08:24 44° NW 17:13:04 10° WSW
SL-08 R/B 3.3 17:03:58 10° NNE 17:08:42 89° WNW 17:13:19 10° SSW
Cosmos 1763 Rocket 3.8 17:03:50 10° SW 17:08:54 67° WNW 17:14:03 10° NNE
Cosmos 1818 3.5 17:04:20 10° NW 17:09:50 73° NE 17:15:18 10° SE
PAYLOAD B 4.5 17:04:44 10° SE 17:10:04 47° ENE 17:15:25 10° N
YAOGAN 1 4.3 17:11:21 14° NE 17:11:21 14° NE 17:13:20 10° NNE
NOAA 12 4.3 17:07:13 10° SSE 17:12:33 80° WSW 17:17:54 10° NNW
Meteor 2-14 Rocket 4.4 17:08:25 10° N 17:14:34 83° E 17:20:39 10° SSE
Cosmos 1627 Rocket 4.5 17:09:57 10° N 17:16:09 89° WSW 17:22:16 10° S
ATLAS 5 CENTAUR R/B 2.8 17:06:59 10° NW 17:16:47 55° NNE 17:19:39 14° E
Cosmos 2279 Rocket 4.2 17:12:34 10° SSE 17:18:26 46° E 17:24:19 10° NNE
Cosmos 841 Rocket 3.4 17:14:00 10° SSW 17:19:08 74° ESE 17:24:18 10° NNE
ERBS 3.3 17:16:20 10° WNW 17:19:13 29° N 17:20:46 19° NE
CZ-4C R/B 4.2 17:15:48 10° N 17:19:28 46° WNW 17:22:56 10° SW
Meteor PRIRODA 4.4 17:16:07 10° S 17:19:40 54° W 17:23:14 10° NNW
USA 307 2.9 17:15:46 10° WNW 17:20:02 74° NNE 17:23:33 15° E
Spot 1 4.4 17:15:29 10° NNE 17:20:17 88° WNW 17:25:18 10° SSW
CZ-4C R/B 3.2 17:13:37 10° NW 17:20:40 77° SW 17:29:01 10° SE
Lacrosse 5 rocket 1.5 17:19:17 10° WNW 17:23:09 71° SW 17:27:14 10° SE
NOSS 3-4 (A) 4.4 17:18:18 10° NW 17:24:10 34° NNE 17:28:52 17° ENE
NOSS 3-4 (C) 4.4 17:18:24 10° NW 17:24:16 34° NNE 17:28:56 17° ENE
ATLAS 2AS CENTAUR R/B 3.8 17:19:48 10° WNW 17:26:32 32° N 17:31:18 17° NE
Cosmos 2322 Rocket 2.6 17:21:28 10° NNW 17:26:54 42° NE 17:32:18 10° ESE
COSMOS 2428 4.2 17:23:27 10° NNW 17:27:12 17° NNE 17:28:43 16° NE
Cosmos 1933 Rocket 4.4 17:23:43 10° N 17:27:24 26° ENE 17:31:03 10° SE
Cosmos 2150 Rocket 4.1 17:23:52 10° NNW 17:28:56 52° ENE 17:34:02 10° SE
Cosmos 1666 Rocket 3.5 17:25:36 10° N 17:30:04 76° E 17:34:27 10° SSE
Cosmos 1980 Rocket 3.0 17:24:39 10° NW 17:30:11 56° WSW 17:35:40 10° S
AQUARIUS 4.1 17:26:43 10° SSE 17:31:12 90° ESE 17:35:44 10° NNW
Cosmos 1328 Rocket 4.0 17:28:11 10° SSE 17:32:20 40° E 17:36:01 13° NNE
USA 234 3.3 17:25:48 10° ESE 17:32:22 85° SSW 17:38:57 10° WNW
Cosmos 1470 Rocket 3.9 17:29:19 10° N 17:33:36 43° ENE 17:37:53 10° SE
Cosmos 1544 3.8 17:30:28 10° N 17:33:43 30° ENE 17:36:58 10° SE
Cosmos 1125 Rocket 3.6 17:30:01 10° NNW 17:35:10 54° ENE 17:40:21 10° SE
Cosmos 2026 Rocket 4.3 17:30:21 10° NNW 17:36:26 68° W 17:42:26 10° S
CORIOLIS 4.3 17:31:20 10° SSE 17:36:46 83° WSW 17:42:15 10° NNW
Meteor 1-26 Rocket 4.4 17:32:02 10° SSW 17:38:03 87° W 17:44:09 10° NNE
Cosmos 1812 2.6 17:34:15 10° S 17:38:04 69° E 17:41:44 11° NNE
PSLV R/B 3.5 17:35:34 10° SSE 17:39:16 80° ENE 17:43:04 10° NNW
H-2A R/B 1.9 17:35:03 10° SSE 17:40:06 69° ENE 17:45:05 10° N
Meteor 1-11 Rocket 4.0 17:35:13 10° N 17:40:36 44° ENE 17:46:04 10° SE
Cosmos 1634 Rocket 4.1 17:34:28 10° S 17:40:49 86° W 17:47:11 10° N
Okean O Rocket 2.0 17:37:44 10° SE 17:41:55 41° ENE 17:46:08 10° N
ATLAS CENTAUR R/B 3.6 17:39:19 10° NW 17:42:13 16° N 17:44:13 13° NNE
USA 308 2.8 17:38:29 10° WNW 17:42:45 85° NNE 17:45:21 23° ESE
GEOS 3 Rocket 4.3 17:41:55 23° ENE 17:44:24 35° NNE 17:49:05 10° NW
Sich 1 4.2 17:41:19 10° NNW 17:45:26 44° W 17:49:32 10° SSW
SL-16 R/B 2.1 17:41:58 10° NNW 17:47:40 68° ENE 17:53:19 10° SE
Cosmos 2237 Rocket 4.0 17:45:49 10° N 17:48:26 13° NNE 17:49:04 13° NNE
SKYMED 2 4.1 17:47:47 27° NE 17:49:17 36° E 17:53:17 10° SSE
Cosmos 540 Rocket 4.2 17:46:08 10° SW 17:51:06 52° WNW 17:56:07 10° NNE
ARGOS 3.2 17:46:45 10° SE 17:52:02 57° ENE 17:57:19 10° N
Cosmos 2082 Rocket 2.3 17:46:34 10° SSW 17:52:15 79° WNW 17:56:57 16° NNE
Meteor 1-5 Rocket 4.5 17:46:42 10° NNW 17:52:42 80° W 17:58:34 10° S
H-2A R/B 4.5 17:56:26 14° NNE 17:56:26 14° NNE 17:57:08 10° N
SMAP 4.1 17:51:03 10° S 17:55:32 48° W 18:00:05 10° NNW
CZ-4 R/B 3.6 17:58:56 13° N 17:58:56 13° N 17:59:23 10° N
deb Chang Zheng 4 3.5 17:53:11 10° SSE 17:57:26 64° ENE 18:01:44 10° N
COSMOS 2455 3.1 17:54:28 10° SW 18:00:29 68° NW 18:04:54 19° NNE
Cosmos 1833 Rocket 3.9 18:00:36 10° WSW 18:05:48 38° NW 18:10:34 12° NNE
Feng Yun 1-1 Rocket 4.4 18:01:17 10° SE 18:07:00 53° ENE 18:12:37 10° N
USA 305 3.0 18:02:49 10° WNW 18:07:04 73° SSW 18:08:52 33° SE
Cosmos 2333 Rocket 2.9 18:02:10 10° NNW 18:07:22 33° NE 18:08:05 32° ENE
Cosmos 1356 Rocket 3.3 18:04:09 10° N 18:08:20 65° ENE 18:12:34 10° SSE
SL-16 R/B 4.3 18:08:48 10° N 18:10:25 11° N 18:11:02 11° NNE
CZ-2C R/B 2.5 18:06:50 19° NNE 18:10:30 59° E 18:15:36 10° S
Cosmos 2219 Rocket 3.0 18:10:09 10° NNW 18:15:05 31° NE 18:15:05 31° NE
Cosmos 1655 Rocket 4.0 18:09:45 10° N 18:16:13 85° E 18:22:34 10° S
Cosmos 2180 Rocket 4.4 18:10:01 10° S 18:16:21 88° E 18:22:37 10° N
Aureole 3 Rocket 3.9 18:14:11 10° SSE 18:18:49 48° E 18:25:16 10° NNE
Cosmos 1515 Rocket 3.5 18:15:01 10° S 18:19:24 65° E 18:20:26 48° NE
Cosmos 921 Rocket 2.8 18:17:32 10° SSW 18:21:46 84° ESE 18:22:47 51° NNE
Spot 2 4.4 18:23:28 22° SE 18:26:38 59° ENE 18:31:36 10° N
CZ-4 R/B 4.4 18:22:35 10° SSE 18:26:43 81° WSW 18:30:54 10° NNW
Cosmos 371 Rocket 3.5 18:29:43 10° NNW 18:33:51 52° NNE 18:33:51 52° NNE
Cosmos 2333 4.4 18:29:46 10° NNW 18:35:25 50° NE 18:35:33 50° NE
CZ-4B R/B 3.7 18:30:15 10° S 18:35:33 59° WSW 18:40:50 10° NNW
COSMO-SKYMED 1 2.5 18:36:23 50° N 18:37:29 82° WNW 18:41:50 10° SSW
USA 306 3.5 18:35:09 10° WNW 18:39:17 51° SSW 18:39:52 47° S
Landsat 5 4.3 18:41:37 38° S 18:41:37 38° S 18:44:05 10° S
USA 267 3.2 18:37:47 43° ENE 18:40:13 88° NNW 18:46:47 10° WSW
MOS 1-B Rocket 4.3 18:34:32 10° NNE 18:40:28 71° WNW 18:47:14 10° SSW
Meteor 2-15 Rocket 4.3 18:38:00 10° S 18:44:08 89° WNW 18:50:07 11° N
APEX 4.4 18:40:57 10° SW 18:43:02 32° SW 18:43:02 32° SW
Meteor 1-27 Rocket 3.5 18:39:53 10° S 18:45:22 74° E 18:46:30 56° NE
YAOGAN 1 3.7 18:48:29 33° NNW 18:48:29 33° NNW 18:50:56 10° NNW
Cosmos 836 Rocket 4.3 18:42:49 10° SSW 18:48:06 77° ESE 18:48:20 75° E
Cosmos 2360 Rocket 2.1 18:42:47 10° NNW 18:48:30 88° NE 18:50:08 49° SSE
Cosmos 2237 4.4 18:46:15 10° NW 18:51:57 69° WSW 18:55:53 20° SSE
Cosmos 1536 4.3 18:50:12 10° NNW 18:52:18 29° NNW 18:52:18 29° NNW
USA 307 3.9 18:55:47 10° WNW 18:59:35 42° SW 18:59:35 42° SW
Lacrosse 5 rocket 4.1 18:59:19 10° W 19:01:43 15° SW 19:04:11 10° SSW
SL-08 RB Rocket 4.5 18:58:57 10° S 19:03:27 51° W 19:07:56 10° NNW
Cosmos 2322 Rocket 3.2 19:05:37 10° NW 19:11:01 44° WSW 19:16:23 10° S
COSMOS 2428 3.7 19:07:13 10° NNW 19:10:45 35° N 19:10:45 35° N
NOSS 3-4 (A) 3.6 19:09:20 10° NW 19:16:06 73° NE 19:16:20 73° ENE
NOSS 3-4 (C) 3.6 19:09:26 10° NW 19:16:12 73° NE 19:16:24 73° NE
Okean O Rocket 3.6 19:14:36 10° SSW 19:18:24 27° W 19:22:15 10° NW
ATLAS 2AS CENTAUR R/B 3.2 19:12:03 10° NW 19:18:44 46° NNE 19:18:44 46° NNE
Cosmos 1867 4.1 19:15:00 10° SW 19:19:10 54° SW 19:19:10 54° SW
GEOS 3 Rocket 4.0 19:23:03 61° WNW 19:23:03 61° WNW 19:27:24 10° NW
ATLAS CENTAUR R/B 4.1 19:19:12 10° NNW 19:20:20 15° NNW 19:20:20 15° NNW
NOSS 3-3 (A) 4.5 19:21:53 10° SSW 19:25:51 47° SSW 19:25:51 47° SSW
NOSS 3-3 (C) 4.5 19:21:59 10° SSW 19:25:55 46° SSW 19:25:55 46° SSW
ATLAS CENTAUR R/B 3.9 19:23:30 10° W 19:27:08 27° WNW 19:27:08 27° WNW
SL-16 R/B 4.3 19:26:47 10° NW 19:31:17 25° WSW 19:35:46 10° SSW
Cosmos 2237 Rocket 4.1 19:29:12 10° NNW 19:30:53 18° N 19:30:53 18° N
Cosmos 2082 Rocket 4.1 19:32:54 10° W 19:37:15 22° NW 19:38:48 20° NNW
COSMOS 2455 4.5 19:42:37 10° W 19:47:31 25° NNW 19:48:03 25° NNW
CZ-2C R/B 4.5 19:48:21 20° NNW 19:50:28 26° WNW 19:54:39 10° WSW
Cosmos 2333 Rocket 3.3 19:46:20 10° NW 19:50:07 40° NW 19:50:07 40° NW
Cosmos 2219 Rocket 3.7 19:53:56 10° NW 19:56:49 31° NW 19:56:49 31° NW
USA 267 4.3 20:25:07 41° WNW 20:25:07 41° WNW 20:29:25 10° W
Cosmos 2360 Rocket 4.5 20:28:00 10° WNW 20:31:45 18° W 20:31:58 18° WSW
